This is the latest recevied weather packets stored in our database for station/object KF4LQQ-13. If no packets are shown the sender has not sent any weather packets the latest 10 day(s).
| Time | Temp. | Humidity | Pressure | Rain* | Wind** | Luminosity | Snow |
|---|---|---|---|---|---|---|---|
| 1777699259 | 23.89° C | - | 1009.1 hPa | 0 mm | - | - | - |
| 1777698658 | 23.33° C | - | 1009.2 hPa | 0 mm | - | - | - |
| 1777698057 | 23.33° C | - | 1009.4 hPa | 0 mm | - | - | - |
| 1777697457 | 23.89° C | - | 1009.4 hPa | 0 mm | - | - | - |
| 1777696851 | 23.89° C | - | 1009.5 hPa | 0 mm | - | - | - |
| 1777696483 | 23.89° C | - | 1009.4 hPa | 0 mm | - | - | - |
| 1777696250 | 23.89° C | - | 1009.4 hPa | 0 mm | - | - | - |
| 1777695782 | 23.89° C | - | 1009.5 hPa | 0 mm | - | - | - |
| 1777695650 | 23.89° C | - | 1009.5 hPa | 0 mm | - | - | - |
| 1777695231 | 23.89° C | - | 1009.5 hPa | 0 mm | - | - | - |
| 1777695050 | 23.89° C | - | 1009.5 hPa | 0 mm | - | - | - |
| 1777694499 | 24.44° C | - | 1009.5 hPa | 0 mm | - | - | - |
| 1777694450 | 24.44° C | - | 1009.5 hPa | 0 mm | - | - | - |
| 1777693848 | 23.89° C | - | 1009.6 hPa | 0 mm | - | - | - |
| 1777693247 | 23.89° C | - | 1009.6 hPa | 0 mm | - | - | - |
| 1777692647 | 24.44° C | - | 1009.6 hPa | 0 mm | - | - | - |
| 1777692516 | 24.44° C | - | 1009.5 hPa | 0 mm | - | - | - |
| 1777692047 | 24.44° C | - | 1009.5 hPa | 0 mm | - | - | - |
| 1777691446 | 24.44° C | - | 1009.7 hPa | 0 mm | - | - | - |
| 1777690846 | 25° C | - | 1009.7 hPa | 0 mm | - | - | - |
| 1777690548 | 25° C | - | 1009.7 hPa | 0 mm | - | - | - |
| 1777690243 | 25° C | - | 1009.6 hPa | 0 mm | - | - | - |
| 1777689643 | 25° C | - | 1009.7 hPa | 0 mm | - | - | - |
| 1777689547 | 25° C | - | 1009.5 hPa | 0 mm | - | - | - |
| 1777689042 | 25° C | - | 1009.6 hPa | 0 mm | - | - | - |
* Rain since midnight (hover to see other rain measurements)
** Current wind speed in m/s (hover to see current wind gust speed)